When you browse on this site, cookies collect data to enhance your experience and personalize the content and advertising you see.
Visit our Privacy Policy to learn more. By continuing to use the site, you agree to this use of cookies and data.
  • In Hungary
  • List of Countries
  • For 7 days
  • Water Temperature
  • Weather Map
  • News
  • Weather Widgets
  • user-avatar
    Login

    Hourly Weather Novyy Kalchir

    Today, 21 October, Monday

    Time Temperature Precipitation Wind Pressure Humidity
    00:00 0°C° 0 mm 5 mps 760 mmHg 61%
    01:00 0°C° 0 mm 5 mps 760 mmHg 61%
    02:00 -1°C° 0 mm 5 mps 760 mmHg 62%
    03:00 -1°C° 0 mm 5 mps 760 mmHg 63%
    04:00 -1°C° 0 mm 5 mps 760 mmHg 64%
    05:00 -1°C° 0 mm 5 mps 760 mmHg 64%
    06:00 -1°C° 0 mm 5 mps 760 mmHg 64%
    07:00 -2°C° 0 mm 6 mps 759 mmHg 63%
    08:00 -1°C° 0 mm 6 mps 759 mmHg 63%
    09:00 -1°C° 0 mm 6 mps 759 mmHg 64%
    10:00 -1°C° 0 mm 6 mps 759 mmHg 64%
    11:00 +1°C° 0 mm 6 mps 759 mmHg 66%
    12:00 +1°C° 0 mm 6 mps 758 mmHg 67%
    13:00 +1°C° 0 mm 6 mps 758 mmHg 68%
    14:00 +2°C° 0.2 mm 6 mps 758 mmHg 69%
    15:00 +2°C° 0.2 mm 6 mps 758 mmHg 71%
    16:00 +2°C° 0.2 mm 6 mps 758 mmHg 72%
    17:00 +2°C° 0.2 mm 6 mps 757 mmHg 73%
    18:00 +2°C° 0.2 mm 6 mps 757 mmHg 73%
    19:00 +3°C° 0.2 mm 6 mps 757 mmHg 73%
    20:00 +3°C° 0 mm 6 mps 756 mmHg 72%
    21:00 +3°C° 0 mm 6 mps 756 mmHg 71%
    22:00 +3°C° 0 mm 6 mps 756 mmHg 70%
    23:00 +3°C° 0 mm 7 mps 755 mmHg 70%

    Tomorrow, 22 October, Tuesday

    Time Temperature Precipitation Wind Pressure Humidity
    00:00 +3°C° 0 mm 7 mps 755 mmHg 71%
    01:00 +3°C° 0 mm 7 mps 754 mmHg 71%
    02:00 +2°C° 0 mm 8 mps 753 mmHg 70%
    03:00 +2°C° 0 mm 8 mps 753 mmHg 70%
    04:00 +2°C° 0 mm 8 mps 752 mmHg 70%
    05:00 +2°C° 0.1 mm 8 mps 752 mmHg 71%
    06:00 +4°C° 0.1 mm 8 mps 751 mmHg 72%
    07:00 +3°C° 0.1 mm 9 mps 750 mmHg 73%
    08:00 +4°C° 1 mm 8 mps 750 mmHg 77%
    09:00 +4°C° 1 mm 7 mps 750 mmHg 82%
    10:00 +4°C° 1 mm 7 mps 750 mmHg 86%
    11:00 +4°C° 0.2 mm 6 mps 750 mmHg 87%
    12:00 +5°C° 0.2 mm 6 mps 750 mmHg 88%
    13:00 +6°C° 0.2 mm 5 mps 750 mmHg 89%
    14:00 +7°C° 0 mm 5 mps 750 mmHg 89%
    15:00 +7°C° 0 mm 4 mps 750 mmHg 89%
    16:00 +7°C° 0 mm 4 mps 750 mmHg 88%
    17:00 +8°C° 0.1 mm 3 mps 750 mmHg 89%
    18:00 +8°C° 0.1 mm 3 mps 750 mmHg 90%
    19:00 +7°C° 0.1 mm 3 mps 751 mmHg 91%
    20:00 +7°C° 0 mm 2 mps 751 mmHg 90%
    21:00 +7°C° 0 mm 2 mps 751 mmHg 88%
    22:00 +7°C° 0 mm 2 mps 751 mmHg 86%
    23:00 +6°C° 0 mm 2 mps 751 mmHg 85%

    Day after tomorrow, 23 October, Wednesday

    Time Temperature Precipitation Wind Pressure Humidity
    00:00 +6°C° 0 mm 2 mps 751 mmHg 85%
    01:00 +6°C° 0 mm 2 mps 751 mmHg 84%
    02:00 +5°C° 0 mm 2 mps 751 mmHg 84%
    03:00 +6°C° 0 mm 1 mps 751 mmHg 84%
    04:00 +5°C° 0 mm 1 mps 751 mmHg 84%
    05:00 +5°C° 0 mm 1 mps 751 mmHg 85%
    06:00 +5°C° 0 mm 1 mps 751 mmHg 86%
    07:00 +5°C° 0 mm 1 mps 751 mmHg 88%
    08:00 +4°C° 0 mm 2 mps 751 mmHg 84%
    09:00 +5°C° 0 mm 2 mps 751 mmHg 80%
    10:00 +5°C° 0 mm 2 mps 751 mmHg 76%
    11:00 +6°C° 0 mm 2 mps 751 mmHg 72%
    12:00 +7°C° 0 mm 3 mps 751 mmHg 69%
    13:00 +7°C° 0 mm 3 mps 750 mmHg 65%
    14:00 +6°C° 0 mm 4 mps 750 mmHg 68%
    15:00 +6°C° 0 mm 4 mps 750 mmHg 70%
    16:00 +6°C° 0 mm 4 mps 750 mmHg 73%
    17:00 +6°C° 0 mm 4 mps 750 mmHg 75%
    18:00 +6°C° 0 mm 4 mps 749 mmHg 77%
    19:00 +5°C° 0 mm 4 mps 749 mmHg 80%
    20:00 +5°C° 0 mm 4 mps 749 mmHg 81%
    21:00 +5°C° 0 mm 5 mps 748 mmHg 82%
    22:00 +6°C° 0 mm 5 mps 748 mmHg 83%
    23:00 +6°C° 0.1 mm 5 mps 748 mmHg 84%

    24 October, Thursday

    Time Temperature Precipitation Wind Pressure Humidity
    00:00 +6°C° 0.1 mm 5 mps 747 mmHg 85%
    01:00 +6°C° 0.1 mm 5 mps 747 mmHg 86%
    02:00 +7°C° 0 mm 5 mps 747 mmHg 88%
    03:00 +7°C° 0 mm 5 mps 747 mmHg 90%
    04:00 +7°C° 0 mm 5 mps 747 mmHg 91%
    05:00 +7°C° 0 mm 4 mps 747 mmHg 91%
    06:00 +6°C° 0 mm 4 mps 747 mmHg 91%
    07:00 +6°C° 0 mm 4 mps 748 mmHg 91%
    08:00 +7°C° 0 mm 4 mps 748 mmHg 89%
    09:00 +7°C° 0 mm 4 mps 748 mmHg 86%
    10:00 +8°C° 0 mm 4 mps 749 mmHg 84%
    11:00 +8°C° 0 mm 4 mps 749 mmHg 81%
    12:00 +10°C° 0 mm 4 mps 749 mmHg 79%
    13:00 +10°C° 0 mm 3 mps 750 mmHg 77%
    14:00 +10°C° 0 mm 3 mps 750 mmHg 77%
    15:00 +10°C° 0 mm 3 mps 750 mmHg 77%
    16:00 +10°C° 0 mm 2 mps 751 mmHg 77%
    17:00 +9°C° 0 mm 2 mps 751 mmHg 79%
    18:00 +9°C° 0 mm 2 mps 751 mmHg 80%
    19:00 +9°C° 0 mm 2 mps 751 mmHg 82%
    20:00 +8°C° 0 mm 2 mps 751 mmHg 84%
    21:00 +8°C° 0 mm 2 mps 752 mmHg 85%
    22:00 +8°C° 0 mm 2 mps 752 mmHg 87%
    23:00 +8°C° 0 mm 2 mps 752 mmHg 87%

    25 October, Friday

    Time Temperature Precipitation Wind Pressure Humidity
    00:00 +8°C° 0 mm 2 mps 752 mmHg 87%
    01:00 +8°C° 0 mm 2 mps 752 mmHg 88%
    02:00 +7°C° 0 mm 2 mps 752 mmHg 88%
    03:00 +7°C° 0 mm 2 mps 752 mmHg 88%
    04:00 +6°C° 0 mm 2 mps 751 mmHg 88%
    05:00 +6°C° 0 mm 2 mps 751 mmHg 87%
    06:00 +6°C° 0 mm 2 mps 751 mmHg 86%
    07:00 +6°C° 0 mm 2 mps 751 mmHg 86%
    08:00 +7°C° 0 mm 2 mps 751 mmHg 84%
    09:00 +8°C° 0 mm 2 mps 751 mmHg 83%
    10:00 +9°C° 0 mm 2 mps 750 mmHg 82%
    11:00 +9°C° 0 mm 3 mps 750 mmHg 80%
    12:00 +10°C° 0 mm 3 mps 750 mmHg 77%
    13:00 +11°C° 0 mm 3 mps 750 mmHg 74%
    14:00 +11°C° 0 mm 3 mps 749 mmHg 76%
    15:00 +10°C° 0 mm 3 mps 749 mmHg 78%
    16:00 +10°C° 0 mm 3 mps 749 mmHg 81%
    17:00 +9°C° 0 mm 3 mps 749 mmHg 83%
    18:00 +8°C° 0 mm 3 mps 749 mmHg 86%
    19:00 +8°C° 0 mm 3 mps 749 mmHg 88%
    20:00 +8°C° 0 mm 3 mps 750 mmHg 88%
    21:00 +8°C° 0 mm 3 mps 750 mmHg 87%
    22:00 +8°C° 0 mm 3 mps 750 mmHg 87%
    23:00 +7°C° 0 mm 3 mps 750 mmHg 89%

    26 October, Saturday

    Time Temperature Precipitation Wind Pressure Humidity
    00:00 +7°C° 0 mm 3 mps 750 mmHg 91%
    01:00 +5°C° 0 mm 3 mps 750 mmHg 92%
    02:00 +5°C° 0 mm 3 mps 751 mmHg 93%
    03:00 +6°C° 0 mm 2 mps 751 mmHg 93%
    04:00 +6°C° 0 mm 2 mps 751 mmHg 94%
    05:00 +6°C° 0 mm 2 mps 751 mmHg 94%
    06:00 +5°C° 0 mm 2 mps 751 mmHg 95%
    07:00 +5°C° 0 mm 2 mps 751 mmHg 95%
    08:00 +5°C° 0 mm 3 mps 751 mmHg 92%
    09:00 +7°C° 0 mm 3 mps 751 mmHg 88%
    10:00 +7°C° 0 mm 4 mps 751 mmHg 85%
    11:00 +7°C° 0 mm 5 mps 750 mmHg 81%
    12:00 +8°C° 0 mm 6 mps 750 mmHg 77%
    13:00 +9°C° 0 mm 7 mps 749 mmHg 73%
    14:00 +9°C° 0 mm 7 mps 748 mmHg 73%
    15:00 +9°C° 0 mm 7 mps 747 mmHg 72%
    16:00 +9°C° 0 mm 7 mps 747 mmHg 72%
    17:00 +9°C° 0 mm 7 mps 746 mmHg 73%
    18:00 +8°C° 0 mm 7 mps 746 mmHg 73%
    19:00 +8°C° 0 mm 7 mps 745 mmHg 74%
    20:00 +8°C° 0 mm 7 mps 745 mmHg 74%
    21:00 +8°C° 0 mm 7 mps 744 mmHg 74%
    22:00 +9°C° 0 mm 7 mps 743 mmHg 75%
    23:00 +9°C° 0 mm 7 mps 743 mmHg 76%

    27 October, Sunday

    Time Temperature Precipitation Wind Pressure Humidity
    00:00 +8°C° 0 mm 7 mps 743 mmHg 78%
    01:00 +8°C° 0 mm 6 mps 743 mmHg 79%
    02:00 +8°C° 0.1 mm 6 mps 744 mmHg 81%
    03:00 +8°C° 0.1 mm 6 mps 744 mmHg 82%
    04:00 +7°C° 0.1 mm 5 mps 744 mmHg 83%
    05:00 +7°C° 0 mm 5 mps 745 mmHg 82%
    06:00 +6°C° 0 mm 4 mps 745 mmHg 81%
    07:00 +6°C° 0 mm 4 mps 746 mmHg 80%
    08:00 +6°C° 0 mm 4 mps 746 mmHg 78%
    09:00 +6°C° 0 mm 4 mps 747 mmHg 77%
    10:00 +6°C° 0 mm 5 mps 747 mmHg 75%
    11:00 +7°C° 0 mm 5 mps 748 mmHg 73%
    12:00 +7°C° 0 mm 4 mps 748 mmHg 70%
    13:00 +8°C° 0 mm 4 mps 748 mmHg 68%
    14:00 +9°C° 0 mm 3 mps 748 mmHg 68%
    15:00 +9°C° 0 mm 3 mps 748 mmHg 69%
    16:00 +9°C° 0 mm 2 mps 748 mmHg 70%
    17:00 +8°C° 0 mm 3 mps 748 mmHg 74%
    18:00 +7°C° 0 mm 3 mps 748 mmHg 77%
    19:00 +7°C° 0 mm 3 mps 748 mmHg 81%
    20:00 +5°C° 0 mm 4 mps 748 mmHg 83%
    21:00 +5°C° 0 mm 4 mps 748 mmHg 84%
    22:00 +5°C° 0 mm 4 mps 748 mmHg 86%
    23:00 +5°C° 0 mm 5 mps 747 mmHg 86%
    Show more